1st Responders/1st Detectors/Storm Spotters Weather Summary for Garrard County, KY

Forecast Maps


Reg. NEXRAD Animation


National Fire Danger: Day 1 & 2 Map

Current NWS Watch/Warnings

SPC Convective Day 1 Outlook


Day 2 Outlook

(Click images to enlarge|Page will refresh every 5 minutes)
UK Ag. Weather Center Desktop Severe Weather Service[HERE]
Garrard County, KY Hazardous Weather Outlook Webcast
(9 AM to 9 PM Mon-Fri)
[Fast]
[Dial-up]


UKAWC 1st Detectors/1st Responders Precision Weather Forecast For GARRARD County, Kentucky
(based on the NWS County Digital Forecast)

ISSUED AT 10:00 UTC ON MONDAY MAY 27 2019
DAY MONDAY
EDT 3HR 7A 8A 9A 10A 11A NOON 1P 2P 3P 4P 5P 6P 7P
MAX/MIN -- 63° -- -- -- -- -- -- -- -- -- -- 83°
TEMP 65° 67° 68° 72° 74° 76° 79° 81° 83° 83° 83° 83° 81°
SKY COVER 69% 72% 71% 70% 68% 67% 66% 64% 60% 55% 51% 46% 42%
Clouds
DEW PT 65° 65° 65° 67° 67° 67° 67° 67° 67° 67° 67° 67° 67°
RH 96% 96% 90% 84% 79% 73% 66% 60% 58% 56% 58% 61% 62%
POP 12HR -- 36% -- -- -- -- -- -- -- -- -- -- --
RAIN/SNOW (liq.equ) -- 0.00in -- -- -- -- -- 0.01in -- -- -- -- --
SNOWFALL -- 0in -- -- -- -- -- 0in -- -- -- -- --
WIND SPEED(MPH) 1 1 1 1 2 5 6 7 7 7 7 7 6
WIND Gust(MPH) 1 2 2 2 5 7 7 9 10 10 10 9 8
WIND DIR SE SE SE S S S SW SW SW SW SW SW SW
DEW Hvy Dew Hvy Dew Hvy Dew Hvy Dew Lgt Dew Lgt Dew -- -- -- -- -- -- --
HeatIndex 65 67 68 72 74 76 79 84 85 86 87 86 85
Rain Showers -- -- -- -- -- -- -- Slight Chance Slight Chance Slight Chance Slight Chance -- --
Thunder Storm -- -- -- -- -- -- -- Slight Chance Slight Chance Slight Chance Slight Chance -- --
Fog -- Areas of -- -- -- -- -- -- -- -- -- -- --
WIND CHILL -- -- -- -- -- -- -- -- -- -- -- -- --
SPRAY COND
DRY COND
LIVESTOCK HEATSTRESS 64.86 66.82 67.49 70.84 72.24 73.45 75.22 76.12 77.41 77.14 77.41 77.81 76.36



DAY TUESDAY WEDNESDAY THURSDAY FRIDAY FRI SATURDAY SUNDAY
EDT 6HR 8P 9P 10P 11P MIDN 1A 2A 3A 4A 5A 6A 7A 8A 9A 10A 11A NOON 1P 2P 3P 4P 5P 6P 8P 11P 2A 5A 8A 11A 2P 5P 8P 2A 8A 2P 8P 2A 8A 2P 8P 2A 8A 2P 8P 2A 8A 2P 8P
MAX/MIN -- -- -- -- -- -- -- -- -- -- -- -- 67° -- -- -- -- -- -- -- -- -- 88° -- -- -- -- 67° -- -- 86° -- -- 67° 83° -- -- 61° 79° -- -- 58° 81° -- -- 63° 81° --
TEMP 79° 77° 74° 72° 72° 70° 70° 68° 68° 68° 70° 70° 72° 74° 77° 81° 83° 85° 86° 88° 88° 88° 86° 83° 72° 70° 67° 70° 79° 86° 85° 81° 70° 68° 83° 77° 65° 63° 77° 74° 61° 61° 79° 76° 65° 65° 81° 72°
SKY COVER 37% 39% 41% 43% 37% 31% 25% 25% 24% 23% 19% 14% 8% 12% 15% 19% 21% 24% 26% 26% 25% 25% 23% 18% 18% 26% 33% 46% 44% 54% 38% 45% 42% 63% 69% 71% 47% 47% 39% 32% 27% 30% 29% 30% 38% 49% 62% 76%
Clouds
DEW PT 67° 67° 67° 65° 65° 65° 65° 65° 65° 65° 65° 65° 67° 67° 67° 67° 67° 67° 67° 67° 65° 65° 65° 65° 65° 63° 63° 63° 67° 65° 65° 63° 61° 61° 61° 61° 63° 61° 59° 59° 56° 58° 59° 61° 59° 59° 63° 61°
RH 66% 69% 76% 78% 81% 84% 86% 87% 87% 86% 84% 81% 84% 78% 68% 62% 60% 54% 52% 49% 47% 47% 50% 55% 76% 81% 87% 81% 64% 47% 51% 54% 72% 78% 49% 57% 93% 89% 53% 62% 84% 86% 50% 57% 83% 81% 53% 68%
POP 12HR 17% -- -- -- -- -- -- -- -- -- -- -- 8% -- -- -- -- -- -- -- -- -- -- 5% -- -- -- 9% -- -- -- 17% -- 10% -- 30% -- 25% -- 15% -- 7% -- 24% -- 8% -- 37%
RAIN/SNOW (liq.equ) 0.01in -- -- -- -- -- 0.00in -- -- -- -- -- 0.00in -- -- -- -- -- 0.00in -- -- -- -- 0.00in -- 0.00in -- 0.00in -- 0.00in -- 0.00in -- -- -- -- -- -- -- -- -- -- -- -- -- -- -- --
SNOWFALL 0in -- -- -- -- -- 0in -- -- -- -- -- 0in -- -- -- -- -- 0in -- -- -- -- 0in -- 0in -- 0in -- 0in -- 0in -- -- -- -- -- -- -- -- -- -- -- -- -- -- -- --
WIND SPEED(MPH) 6 5 5 6 6 6 7 7 7 7 7 8 9 10 13 14 15 15 15 15 15 15 13 7 7 7 7 7 14 15 13 8 7 8 15 10 7 7 8 7 5 5 7 6 6 7 7 7
WIND DIR SW SW S S S S S S SW SW SW SW SW SW SW SW SW SW SW SW SW SW SW SW SW SW SW SW SW SW SW W SW S SW W W W W W E SW SW W S S SW W
HeatIndex 82 77 74 72 72 70 70 68 68 68 70 70 72 74 77 83 86 87 89 91 90 89 89 84 72 70 67 70 82 88 88 83 70 68 83 77 65 63 77 74 61 61 80 76 65 65 83 72
Rain Showers -- -- -- -- -- -- -- -- -- -- -- -- -- -- -- -- -- -- -- -- -- -- -- -- -- -- -- Slight Chance Slight Chance -- -- -- -- Slight Chance Chance Chance -- -- Slight Chance -- -- Slight Chance Slight Chance -- -- Slight Chance Chance Chance
Thunder Storm -- -- -- -- -- -- -- -- -- -- -- -- -- -- -- -- -- -- -- -- -- -- -- -- -- -- -- -- Slight Chance -- -- -- -- Slight Chance Slight Chance Chance -- -- -- -- -- -- -- -- -- Slight Chance Chance --
Fog -- -- -- -- -- -- -- -- -- -- -- -- -- -- -- -- -- -- -- -- -- -- -- -- -- -- -- -- -- -- -- -- -- -- -- -- -- -- -- -- -- -- -- -- -- -- -- --
WIND CHILL -- -- -- -- -- -- -- -- -- -- -- -- -- -- -- -- -- -- -- -- -- -- -- -- -- -- -- -- -- -- -- -- -- -- -- -- -- -- -- -- -- -- -- -- -- -- -- --
SPRAY COND
DRY COND
LIVESTOCK HEATSTRESS 75.22 73.90 71.99 70.40 70.62 69.01 69.14 67.34 67.34 67.29 69.01 68.83 70.84 72.16 73.80 76.36 77.68 78.37 78.82 79.81 79.49 79.49 78.52 77.01 70.26 68.83 66.41 68.83 75.00 78.07 77.94 75.38 68.28 66.89 76.21 72.70 64.76 62.75 72.30 70.82 60.81 60.83 73.44 71.93 64.42 64.35 75.26 69.68

Click on individual weather variable above in left-hand column (ie., TEMP, RH, QPF 12HR) to view state forecast maps






NWS 48 Hr. Forecast Maps,

Regional Hourly Observations For GARRARD County, Kentucky
Issued at 600 AM EDT MON MAY 27 2019
NORTHEAST KENTUCKY
  
CITY           SKY/WX    TMP DP  RH WIND       PRES   REMARKS
LEXINGTON      CLOUDY    68  65  90 S3        30.06R FOG              
COVINGTON      FAIR      65  61  87 CALM      30.05R                  
FRANKFORT      CLOUDY    71  68  90 CALM      30.03S                  


Current NOWCAST not available:
Nowcasts are not issued routinely during fair weather. Only when
precipitation or other significant weather is occuring in this county will these
forecasts be issued. Currently, there is no short term forecast in effect.


Fire Weather Forecast For GARRARD County, KY
Provided by the National Weather Service:

Issued at: Mon May 27 06:05:01 EDT 2019


                      Today        Tonight      Tue          

CLOUD COVER           PCldy        MClear       MClear       
PRECIP TYPE           Tstms        None         None         
CHANCE PRECIP (%)     20           0            0            
TEMP (24H TREND)      87 (-1)      67 (+2)      88           
RH % (24H TREND)      49 (+6)      89 (-11)     46           
20FTWND-VAL/AM(MPH)   Lgt/Var                   SW  8 G18    
20FTWND-RDG/PM(MPH)   SW  6        Lgt/Var      SW 10 G18    
PRECIP AMOUNT         0.01         0.00         0.00         
MIXING HGT(FT-AGL/MSL)7298                      6951         
TRANSPORT WND (MPH)   W 16                      SW 24        
VENT RATE (KT-FT)     114576                    141950       
DISPERSION            Excellent                 Excellent    
DSI                   SLGT UNSTBL  SLGT UNSTBL  MOD UNSTBL   
LAL                   2            1            1            
HAINES INDEX          3            3            2            
ADI EARLY             26 FAIR      7 POOR       68 GOOD      
ADI LATE              60 GEN GOOD  4 VERY POOR  81 GOOD      
MAX LVORI EARLY       9            5            5            
MAX LVORI LATE        2            6            1            

REMARKS...ADI IS ATMOSPHERIC DISPERSION INDEX BY LAVDAS.        
LVORI IS LOW VISIBILITY OCCURRENCE RISK INDEX.

.WEDNESDAY...Partly cloudy. Lows in the upper 60s. Highs in the
upper 80s. Southwest winds around 5 mph. 
.THURSDAY...Partly cloudy. A 40 percent chance of showers and
thunderstorms. Lows in the upper 60s. Highs in the mid 80s.
Southwest winds around 5 mph. 
.FRIDAY...Partly cloudy. Chance of showers. Lows in the mid 60s.
Highs in the lower 80s. West winds 5 to 10 mph. 
.SATURDAY...Partly cloudy. Lows in the lower 60s. Highs in the
lower 80s. West winds up to 5 mph. 
.SUNDAY...Mostly cloudy. A 50 percent chance of showers and
thunderstorms. Lows in the lower 60s. Highs in the lower 80s.
West winds up to 5 mph. 

SPC's Fire Weather Web Tool (Excellent!), SPC's Fire Weather Outlooks, NWS Fire Weather WEB, Fire Danger Class Map,
Keetch-Byram Drought Index, ROMAN Web, Haines Index ,
WFAS's 10-hr Dead Fuel Moist., WFAS's 100-hr Dead Fuel Moist., Probablity of Ignition, Visual blackness Map, Palmer Drought Index, HPC's Rainfall Forecast Maps


Hazardous Weather Outlook For GARRARD County, Kentucky
339 AM EDT Mon May 27 2019 /239 AM CDT Mon May 27 2019/

   DENSE FOG ADVISORY IN EFFECT UNTIL 9 AM EDT /8 AM CDT/ THIS
MORNING  

This hazardous weather outlook is for portions of south central
Indiana and Central Kentucky.

 DAY ONE  Today and Tonight.

Areas of dense fog will restrict visibilities to less than a half
mile in many locations this morning. 

Isolated thunderstorms are possible this afternoon, mainly in
southern Indiana and north-central Kentucky. Brief heavy rainfall 
and gusty winds will be the main hazards. 

 DAYS TWO THROUGH SEVEN  Tuesday through Sunday.

Isolated to scattered thunderstorms are possible Wednesday over
southern Indiana and north-central Kentucky, and on Thursday
areawide. A few strong storms could occur, but organized severe
weather is not expected at this time. Scattered storms again could
occur on Sunday.

 SPOTTER INFORMATION STATEMENT  

Spotter activation is not anticipated at this time.

Latest GARRARD County, Kentucky Watches, Warnings and Advisories.
Additional Drought Info.: UKAWC Drought Page, Kentucky Drought Watch


7-Day Forecast For GARRARD County, KY


DENSE FOG ADVISORY IN EFFECT UNTIL 9 AM EDT THIS MORNING

TODAY
Areas of dense fog in the morning. Mostly cloudy in the morning, then partly cloudy with a 20 percent chance of showers and thunderstorms in the afternoon. Highs in the mid 80s. Southwest winds up to 10 mph.

TONIGHT
Partly cloudy. Lows in the upper 60s. Southwest winds 5 to 10 mph.

TUESDAY
Mostly sunny. Highs in the upper 80s. Southwest winds 10 to 15 mph.

TUESDAY NIGHT
Mostly clear. Lows in the upper 60s. Southwest winds 5 to 10 mph.

WEDNESDAY
Partly cloudy with a 20 percent chance of showers. Highs in the upper 80s. Southwest winds 10 to 15 mph.

WEDNESDAY NIGHT
Partly cloudy. Lows in the upper 60s.

THURSDAY
Partly cloudy with a 30 percent chance of showers and thunderstorms. Highs in the mid 80s.

THURSDAY NIGHT
Partly cloudy with chance of showers and slight chance of thunderstorms. Lows in the lower 60s. Chance of precipitation 30 percent.

FRIDAY
Partly cloudy with a 20 percent chance of showers and thunderstorms. Highs in the lower 80s.

FRIDAY NIGHT
Partly cloudy. Lows around 60.

SATURDAY
Partly cloudy with a 20 percent chance of showers and thunderstorms. Highs in the lower 80s.

SATURDAY NIGHT
Partly cloudy. Lows in the lower 60s.

SUNDAY
Partly cloudy with a 50 percent chance of showers and thunderstorms. Highs in the lower 80s.

Ag Weather Center, Department of Biosystems & Agricultural Engineering, University of Kentucky